Location: Rosenheim
(47.8408°N, 12.2113°E)
Time: 12:19:33
(UTC+01:00)

ISS - Pass Details

Date: 17 November 2017
Orbit: 402 x 407 km, 51.6° (Epoch: 24 November)

Event Time Altitude Azimuth Distance (km) Brightness Sun altitude
Exits shadow 04:48:19 18° 142° (SE) 1,053 -1.3 -25.2°
Drops below altitude 10° 04:49:20 10° 135° (SE) 1,450 -0.5 -25.1°
Sets 04:51:27 0° 130° (SE) 2,306 0.8 -24.7°
